#timestamp,LO_Frequency,Hit,StdDev 
1506542415.5,286047003.4,N
1506542435.3,286047001.4,N
1506542455.2,286047004.0,N
1506542475.9,286047008.9,Y
1506542495.7,286047006.2,P
1506542515.6,286047005.0,N
1506542535.4,286047005.1,N
1506542555.2,286047002.3,N
1506542575.1,286047002.2,N
1506542576.0,286047002.2,N
1506542595.8,286047002.2,N
1506542615.6,286047002.7,N
1506542635.5,286047003.4,N
1506542655.3,286047005.4,Y
1506542675.1,286046998.2,P
1506542695.9,286046998.3,N
1506542715.7,286046999.5,N
1506542735.5,286047000.9,N
1506542755.3,286046999.4,N
1506542775.2,286047001.5,N
1506542795.0,286047002.6,N
1506542795.9,286047002.6,N
1506542815.7,286047005.0,N
1506542835.6,286047001.8,N
1506542855.4,286047002.6,N
1506542875.2,286047004.1,N
1506542895.1,286047004.3,N
1506542896.0,286047004.3,N
1506542915.8,286047004.1,N
1506542935.6,286047000.3,N
1506542955.5,286047001.4,N
1506542975.3,286047005.9,N
1506542995.1,286047003.4,N
1506543015.9,286047001.4,N
1506543035.7,286047003.0,N
1506543055.5,286047003.3,N
1506543075.4,286047006.2,Y
1506543095.2,286047009.2,P
1506543115.0,286047009.0,N
1506543115.9,286047009.0,N
1506543135.8,286047008.1,N
1506543155.6,286047009.1,Y
1506543175.4,286047000.9,P
1506543195.3,286046998.5,N
1506543215.1,286047001.4,N
1506543216.0,286047001.4,N
1506543235.8,286047005.6,N
1506543255.6,286047004.8,N
1506543275.5,286047005.0,N
1506543295.3,286047003.1,N
1506543315.1,286047002.2,N
1506543335.9,286046999.0,N
1506543355.7,286047002.4,N
1506543375.5,286047000.6,N
1506543395.4,286047000.7,N
1506543415.2,286046998.1,N
1506543435.0,286047001.0,N
1506543435.9,286047001.0,N
1506543455.8,286046999.7,N
1506543475.6,286047000.5,N
1506543495.4,286046998.3,N
1506543515.3,286046999.2,N
1506543535.1,286046997.1,N
1506543536.0,286046997.1,N
1506543555.8,286046995.7,N
1506543575.6,286046995.3,N
1506543595.5,286046994.0,N
1506543615.3,286046994.2,N
1506543635.1,286046994.2,N
1506543655.9,286046997.9,N
1506543675.7,286046996.6,N
1506543695.5,286046994.9,N
1506543715.4,286046995.5,N
1506543735.2,286046995.4,N
1506543755.0,286046997.7,N
1506543755.9,286046997.7,N
1506543775.8,286046998.0,N
1506543795.6,286046996.2,N
1506543815.4,286046995.7,N
1506543835.3,286046995.2,N
1506543855.1,286046996.8,N
1506543856.0,286046996.8,N
1506543875.8,286046999.0,N
1506543895.7,286046998.7,N
1506543915.5,286046998.8,N
1506543935.3,286046998.0,N
1506543955.1,286046995.1,N
1506543975.9,286046999.3,N
1506543995.7,286046998.5,N
1506544015.5,286047002.3,N
1506544035.4,286046998.5,N
1506544055.2,286046998.8,N
1506544075.0,286047000.2,N
1506544075.9,286047000.2,N
1506544095.8,286046998.2,N
1506544115.6,286046998.4,N
1506544135.4,286046998.2,N
1506544155.3,286046998.4,N
1506544175.1,286046997.1,N
1506544176.0,286046997.1,N
1506544195.8,286046997.9,N
1506544215.7,286046995.7,N
1506544235.5,286046996.1,N
1506544255.3,286046995.1,Y
1506544275.2,286046999.5,P
1506544295.9,286046998.5,N
1506544315.7,286046998.6,N
1506544335.5,286046999.9,N
1506544355.4,286047001.0,N
1506544375.2,286047001.0,N
1506544395.0,286047000.9,N
1506544395.9,286047000.9,N
1506544415.8,286047000.1,N
1506544435.6,286047002.8,N
1506544455.4,286047001.0,N
1506544475.3,286047000.0,N
1506544495.1,286047002.4,N
1506544496.0,286047002.4,N
1506544515.8,286047000.1,N
1506544535.7,286047004.0,N
1506544555.5,286047002.4,N
1506544575.3,286047005.2,Y
1506544595.2,286047005.6,P
1506544615.9,286047004.0,N
1506544635.7,286047007.0,P
1506544655.6,286047004.8,N
1506544675.4,286047004.5,N
1506544695.2,286047004.8,N
1506544715.1,286047005.7,Y
1506544716.0,286047005.7,P
1506544735.8,286047002.3,P
1506544755.6,286047001.1,N
1506544775.5,286047002.0,N
1506544795.3,286047002.5,N
1506544815.1,286047001.8,N
1506544835.8,286047002.7,N
1506544855.7,286047002.3,N
1506544875.5,286047002.0,N
1506544895.3,286047000.2,N
1506544915.2,286047002.4,N
1506544935.9,286047000.2,N
1506544955.7,286046998.6,N
1506544975.6,286047000.3,N
1506544995.4,286047002.7,N
1506545015.2,286047002.3,N
1506545035.1,286047002.6,N
1506545036.0,286047002.6,N
1506545055.8,286047001.1,N
1506545075.6,286046998.4,N
1506545095.4,286046999.1,N
1506545115.3,286047000.3,N
1506545135.1,286046997.4,N
1506545155.8,286046997.7,N
1506545175.7,286046995.8,N
1506545195.5,286046997.8,N
1506545215.3,286046995.3,N
1506545235.2,286046995.5,N
1506545255.9,286046993.9,N
1506545275.7,286046993.3,N
1506545295.6,286046996.3,N
1506545315.4,286046997.0,N
1506545335.2,286046998.0,N
1506545355.1,286047000.3,N
1506545356.0,286047000.3,N
1506545375.8,286046998.4,N
1506545395.6,286046996.9,N
1506545415.5,286046999.5,N
1506545435.3,286046999.6,N
1506545455.1,286046999.3,N
1506545475.8,286046998.1,N
1506545495.7,286047001.4,N
1506545515.5,286047000.1,N
1506545535.3,286047001.0,N
1506545555.2,286047000.3,N
1506545575.9,286047002.8,N
1506545595.7,286047000.9,N
1506545615.6,286046999.3,N
1506545635.4,286046998.5,N
1506545655.2,286047001.0,N
1506545675.1,286046999.4,N
1506545676.0,286046999.4,N
1506545695.8,286046996.7,N
1506545715.6,286047000.7,N
1506545735.5,286046999.0,N
1506545755.3,286046998.9,N
1506545775.1,286046998.1,N
1506545795.8,286047000.4,N
1506545815.7,286046998.7,N
1506545835.5,286047000.1,N
1506545855.3,286047000.0,N
1506545875.2,286047003.8,N
1506545895.9,286047003.2,N
1506545915.7,286047004.6,N
1506545935.6,286047003.2,N
1506545955.4,286047001.7,N
1506545975.2,286047003.4,N
1506545995.1,286047003.8,N
1506545996.0,286047003.8,N
